This demonstration page uses our WeatherBlox Daily Observations layout. Learn more.

Left ArrowRight Arrow

Hourly Observations for March 15, 2015

Temp ( °F °C ) Dew Point ( °F °C ) Humidity (%) Winds ( mph kmh ) Pressure ( in mb ) Visibility ( mi km ) Precip ( " mm )
12:15 am 00:15 Clear 52 11 45 7 77 77 NNW 15 24 29.88 1012 10 16 N/A
12:35 am 00:35 Clear 50 10 45 7 82 82 NNW 15 24 29.88 1012 10 16 N/A
12:55 am 00:55 Partly Cloudy 50 10 43 6 76 76 N 15 24 29.88 1012 10 16 N/A
1:15 am 01:15 Mostly Cloudy 50 10 43 6 76 76 N 9 15 29.88 1012 10 16 N/A
1:35 am 01:35 Cloudy 50 10 43 6 76 76 NW 5 7 29.91 1013 10 16 N/A
1:55 am 01:55 Partly Cloudy 48 9 41 5 76 76 NNE 3 6 29.91 1013 10 16 N/A
2:15 am 02:15 Clear 46 8 41 5 82 82 N 5 7 29.94 1014 10 16 N/A
2:35 am 02:35 Clear 48 9 41 5 76 76 N 6 9 29.91 1013 10 16 N/A
2:55 am 02:55 Partly Cloudy 46 8 41 5 82 82 N 6 9 29.94 1014 10 16 N/A
3:15 am 03:15 Mostly Cloudy 46 8 39 4 76 76 N 3 6 29.94 1014 10 16 N/A
3:35 am 03:35 Partly Cloudy 45 7 39 4 81 81 N N/A 29.91 1013 10 16 N/A
3:55 am 03:55 Clear 45 7 37 3 76 76 NW 9 15 29.91 1013 10 16 N/A
4:15 am 04:15 Partly Cloudy 46 8 39 4 76 76 NW 10 17 29.91 1013 10 16 N/A
4:35 am 04:35 Mostly Cloudy 46 8 39 4 76 76 NW 7 11 29.91 1013 10 16 N/A
4:55 am 04:55 Cloudy 46 8 39 4 76 76 WNW 7 11 29.91 1013 10 16 N/A
5:15 am 05:15 Cloudy 48 9 39 4 71 71 WNW 8 13 29.88 1012 10 16 N/A
5:35 am 05:35 Cloudy 46 8 39 4 76 76 NW 7 11 29.91 1013 10 16 N/A
5:55 am 05:55 Cloudy 46 8 39 4 76 76 NW 9 15 29.91 1013 10 16 N/A
6:15 am 06:15 Cloudy 46 8 41 5 82 82 WNW 8 13 29.94 1014 10 16 N/A
6:35 am 06:35 Cloudy 48 9 41 5 76 76 WNW 16 26 29.91 1013 10 16 N/A
6:55 am 06:55 Cloudy 48 9 37 3 66 66 NW 23 37 29.91 1013 10 16 N/A
7:15 am 07:15 Cloudy 48 9 36 2 62 62 WNW 18 30 29.94 1014 10 16 N/A
7:35 am 07:35 Cloudy 46 8 36 2 66 66 W 15 24 29.97 1015 10 16 N/A
7:55 am 07:55 Cloudy 46 8 36 2 66 66 NW 20 31 29.97 1015 10 16 N/A
8:15 am 08:15 Cloudy 46 8 36 2 66 66 NW 15 24 29.97 1015 10 16 N/A
8:35 am 08:35 Cloudy 46 8 36 2 66 66 WNW 15 24 29.97 1015 10 16 N/A
8:55 am 08:55 Cloudy 46 8 36 2 66 66 NW 18 30 30.00 1016 10 16 N/A
9:55 am 09:55 Cloudy 46 8 36 2 66 66 WNW 31 50 30.03 1017 10 16 N/A
10:15 am 10:15 Cloudy 46 8 34 1 62 62 NW 26 43 30.03 1017 10 16 N/A
10:35 am 10:35 Cloudy 46 8 36 2 66 66 WNW 21 33 30.03 1017 10 16 N/A
10:55 am 10:55 Partly Cloudy 50 10 36 2 58 58 WNW 22 35 30.00 1016 10 16 N/A
11:15 am 11:15 Partly Cloudy 50 10 36 2 58 58 WNW 25 41 29.97 1015 10 16 N/A
11:35 am 11:35 Sunny 50 10 36 2 58 58 WNW 26 43 30.00 1016 10 16 N/A
11:55 am 11:55 Sunny 50 10 36 2 58 58 NW 28 44 30.00 1016 10 16 N/A
12:15 pm 12:15 Sunny 52 11 36 2 54 54 NW 28 44 30.00 1016 10 16 N/A
12:35 pm 12:35 Partly Cloudy 52 11 36 2 54 54 NW 35 56 30.00 1016 10 16 N/A
12:55 pm 12:55 Partly Cloudy 52 11 36 2 54 54 NW 22 35 30.00 1016 10 16 N/A
1:15 pm 13:15 Partly Cloudy 52 11 36 2 54 54 NW 21 33 30.00 1016 10 16 N/A
1:35 pm 13:35 Sunny 54 12 36 2 51 51 NW 21 33 30.00 1016 10 16 N/A
1:55 pm 13:55 Partly Cloudy 54 12 36 2 51 51 WNW 22 35 30.00 1016 10 16 N/A
2:15 pm 14:15 Partly Cloudy 54 12 36 2 51 51 NW 23 37 30.00 1016 10 16 N/A
2:35 pm 14:35 Sunny 54 12 34 1 47 47 NW 23 37 29.97 1015 10 16 N/A
2:55 pm 14:55 Sunny 54 12 36 2 51 51 NW 20 31 30.00 1016 10 16 N/A
3:15 pm 15:15 Partly Cloudy 54 12 34 1 47 47 NW 23 37 30.00 1016 10 16 N/A
3:35 pm 15:35 Sunny 54 12 34 1 47 47 NNW 28 44 30.00 1016 10 16 N/A
3:55 pm 15:55 Sunny 54 12 34 1 47 47 NW 23 37 30.00 1016 10 16 N/A
4:15 pm 16:15 Sunny 54 12 34 1 47 47 NW 23 37 30.00 1016 10 16 N/A
4:35 pm 16:35 Sunny 54 12 34 1 47 47 NNW 25 41 30.00 1016 10 16 N/A
4:55 pm 16:55 Sunny 54 12 34 1 47 47 NNW 17 28 30.00 1016 10 16 N/A
5:15 pm 17:15 Sunny 52 11 32 undefined 47 47 NW 16 26 30.00 1016 10 16 N/A
5:35 pm 17:35 Sunny 52 11 32 undefined 47 47 NNW 18 30 30.00 1016 10 16 N/A
5:55 pm 17:55 Sunny 52 11 32 undefined 47 47 NNW 20 31 30.03 1017 10 16 N/A
6:15 pm 18:15 Sunny 50 10 32 undefined 50 50 NNW 22 35 30.03 1017 10 16 N/A
6:35 pm 18:35 Sunny 50 10 32 undefined 50 50 NNW 15 24 30.03 1017 10 16 N/A
6:55 pm 18:55 Sunny 48 9 32 undefined 54 54 N 12 19 30.09 1019 10 16 N/A
7:15 pm 19:15 Sunny 46 8 32 undefined 57 57 NNE 7 11 30.09 1019 10 16 N/A
7:35 pm 19:35 Clear 46 8 32 undefined 57 57 N 6 9 30.09 1019 10 16 N/A
7:55 pm 19:55 Clear 46 8 32 undefined 57 57 NE 5 7 30.09 1019 10 16 N/A
8:15 pm 20:15 Clear 45 7 32 undefined 61 61 NNE 5 7 30.12 1020 10 16 N/A
8:35 pm 20:35 Clear 45 7 32 undefined 61 61 NNE 8 13 30.12 1020 10 16 N/A
8:55 pm 20:55 Clear 45 7 32 undefined 61 61 N 13 20 30.12 1020 10 16 N/A
9:15 pm 21:15 Clear 45 7 32 undefined 61 61 NNW 17 28 30.12 1020 10 16 N/A
9:35 pm 21:35 Clear 45 7 32 undefined 61 61 NNW 13 20 30.12 1020 10 16 N/A
9:55 pm 21:55 Clear 43 6 32 undefined 66 66 NNW 14 22 30.12 1020 10 16 N/A
10:15 pm 22:15 Clear 45 7 32 undefined 61 61 N 7 11 30.15 1021 10 16 N/A
10:35 pm 22:35 Clear 43 6 32 undefined 66 66 N N/A 30.15 1021 10 16 N/A
10:55 pm 22:55 Clear 43 6 32 undefined 66 66 N 3 6 30.15 1021 10 16 N/A
11:15 pm 23:15 Clear 43 6 32 undefined 66 66 N N/A 30.15 1021 10 16 N/A
11:35 pm 23:35 Clear 41 5 32 undefined 70 70 N N/A 30.15 1021 10 16 N/A
11:55 pm 23:55 Clear 41 5 32 undefined 70 70 N N/A 30.15 1021 10 16 N/A

Powered by AerisWeather